Location: Stonelick Lake State Park
(39.2170°N, 84.0850°W)
Time: 19:46:06
(UTC-05:00)

Daily predictions for brighter satellites

Satellite Brightness Start Highest point End
(mag) Time Altitude Azimuth Time Altitude Azimuth Time Altitude Azimuth
SL-8 Rocket 4.1 17:34:10 10° N 17:40:12 54° E 17:46:11 10° SSE
CZ-2C R/B 4.1 17:37:54 10° N 17:42:19 65° WNW 17:46:45 10° SSW
IDEFIX/ARIANE 42P 2.7 17:40:28 10° SE 17:45:28 50° ENE 17:50:28 10° N
CORIOLIS 4.4 17:40:48 10° SE 17:45:57 46° ENE 17:51:05 10° N
ATLAS 2AS CENTAUR R/B 3.1 17:38:22 10° NNW 17:46:20 57° NE 17:53:45 10° SE
Cosmos 1844 3.7 17:40:56 10° S 17:46:25 64° ESE 17:51:55 10° NNE
Cosmos 1455 Rocket 3.6 17:45:10 10° N 17:49:14 35° ENE 17:53:18 10° SE
BREEZE-M DEB (TANK) 3.7 17:43:07 10° WNW 17:50:24 76° SW 17:54:03 10° SE
Cosmos 2366 rocket 4.3 17:45:17 10° N 17:51:26 48° ENE 17:57:28 10° SSE
CZ-3B DEB 1.8 17:50:17 10° SW 17:53:26 81° SE 18:01:25 10° NE
Cosmos 2218 Rocket 4.0 17:49:53 10° N 17:56:07 60° E 18:02:13 10° SSE
Cosmos 2181 Rocket 4.3 17:50:19 10° SSW 17:56:39 76° W 18:03:05 10° N
MSX 4.1 17:52:45 10° SE 17:58:13 46° ENE 18:03:41 10° N
CZ-4 R/B 1.6 17:58:10 10° S 18:02:20 83° WSW 18:06:31 10° NNW
Thor Agena Rocket 3.6 17:57:37 10° NNE 18:02:51 82° ESE 18:08:07 10° SSW
Cosmos 2278 Rocket 2.4 17:57:29 10° S 18:02:55 52° ESE 18:08:25 10° NNE
SMAP 3.0 17:58:40 10° SSE 18:03:17 75° ENE 18:07:56 10° N
Cosmos 1238 Rocket 2.0 18:03:44 10° S 18:06:39 64° E 18:09:38 10° NNE
OTV 4 2.7 18:04:11 10° WSW 18:06:41 24° SSW 18:09:10 10° SE
SJ-12 4.0 18:03:30 10° SSE 18:07:35 86° WSW 18:11:44 10° NNW
OPS 8737 4.3 18:04:17 10° SW 18:07:41 86° WNW 18:10:36 12° NNE
CZ-2C R/B 2.5 18:04:34 10° SSE 18:09:31 88° ENE 18:14:39 10° NNW
Cosmos 1975 3.3 18:07:47 10° N 18:11:37 38° ENE 18:15:24 10° SSE
COSMOS 2406 4.2 18:06:23 10° NNW 18:11:55 52° WSW 18:17:28 10° S
Meteor 1-12 Rocket 4.3 18:06:43 10° N 18:12:28 59° ENE 18:18:15 10° SSE
Cosmos 2251 Rocket 3.5 18:08:25 10° NNW 18:13:48 75° ENE 18:19:05 10° SSE
MOS 1 4.5 18:10:38 10° S 18:16:18 78° WSW 18:21:59 10° NNW
SL-27 R/B 3.0 18:16:45 10° NNW 18:20:24 63° WSW 18:23:57 10° S
COSMOS 2441 4.4 18:16:16 10° SSE 18:21:02 60° ENE 18:25:52 10° N
Genesis I 4.1 18:18:15 10° N 18:21:40 28° NE 18:23:19 20° E
OE (NEXTSAT) 4.5 18:20:56 10° SW 18:24:28 65° SSE 18:26:20 26° ENE
SL-8 R/B 3.7 18:22:58 10° WSW 18:27:44 78° NNW 18:30:50 22° NE
Cosmos 1484 Rocket 2.7 18:25:00 10° SSE 18:28:39 53° ENE 18:32:18 10° N
Cosmos 2082 Rocket 2.9 18:24:17 10° N 18:29:14 30° ENE 18:33:41 12° ESE
Cosmos 1833 Rocket 3.6 18:26:05 10° N 18:30:49 27° ENE 18:33:05 21° E
Meteor 2-21 4.5 18:26:58 10° N 18:33:03 56° E 18:39:03 10° SSE
NOSS 2-1 (D) 4.4 18:29:58 10° S 18:33:06 24° ESE 18:33:30 24° ESE
NOSS 2-1 (C) 4.5 18:30:41 10° SSE 18:33:48 24° ESE 18:34:09 24° ESE
COSMO-SKYMED 1 2.5 18:34:26 10° NNE 18:38:46 71° ESE 18:43:05 10° S
Cosmos 1500 3.0 18:37:58 10° N 18:41:49 73° E 18:45:38 10° SSE
Meteor 1-28 Rocket 3.4 18:45:30 38° ENE 18:46:22 47° E 18:50:01 10° S
Nadezhda 3 Rocket 3.9 18:41:45 10° S 18:47:51 69° E 18:54:06 10° NNE
GRACE-1 4.5 18:45:11 10° S 18:47:12 42° SSE 18:47:12 42° SSE
SL-24 R/B - RUBIN 2 4.4 18:44:07 10° SSW 18:50:19 73° ESE 18:54:43 23° NE
NOSS 2-1 (E) 4.0 18:48:45 10° S 18:52:08 35° ESE 18:52:08 35° ESE
Timation 1 Rocket 4.4 18:46:51 10° S 18:52:37 53° ESE 18:55:27 29° NE
Meteor 2-14 Rocket 4.4 18:48:59 10° N 18:55:05 62° E 19:01:08 10° SSE
GEOS 3 Rocket 3.5 18:53:31 17° SE 18:57:23 63° NE 19:02:27 10° NNW
Tiangong 1 1.3 18:54:30 10° WSW 18:57:12 58° SSW 18:57:12 58° SSW
Meteor 2-4 Rocket 3.9 18:52:47 10° SSE 18:57:48 40° E 18:58:30 38° ENE
USA 234 4.5 19:03:52 16° NNE 19:08:02 32° NNW 19:13:38 10° W
Cosmos 1025 Rocket 3.5 19:04:14 10° S 19:07:27 42° SE 19:07:27 42° SE
ATLAS 3B CENTAUR R/B 4.1 18:53:13 10° WSW 19:11:16 45° S 19:15:57 23° SE
COSMOS 2487 2.7 19:08:22 10° NNW 19:11:58 69° WSW 19:13:00 42° S
Meteor 2-21 Rocket 4.4 19:07:26 10° N 19:13:39 84° W 19:19:48 10° S
Cosmos 921 Rocket 2.8 19:09:48 10° SSW 19:14:01 89° WNW 19:14:35 67° NNE
ISS -0.5 19:14:00 10° NW 19:14:53 12° NNW 19:14:53 12° NNW
Meteor 2-16 Rocket 4.3 19:11:42 10° N 19:17:49 85° E 19:23:54 10° S
Cosmos 1346 Rocket 4.2 19:14:45 10° SW 19:18:23 37° WNW 19:20:56 17° NNW
Cosmos 1371 Rocket 4.0 19:14:45 10° S 19:20:00 62° ESE 19:20:09 62° E
BREEZE M DEB (TANK) 3.9 19:16:17 10° NW 19:20:20 48° NNE 19:21:54 42° ENE
NOSS 3-4 (A) 4.1 19:15:22 10° NNW 19:21:58 42° NE 19:21:59 42° NE
NOSS 3-4 (C) 4.2 19:15:29 10° NNW 19:22:03 41° NE 19:22:03 41° NE
Okean 1-7 Rocket 4.3 19:25:57 10° SSW 19:30:22 53° W 19:32:13 32° NNW
Cosmos 2297 4.1 19:27:05 10° SW 19:32:38 59° WNW 19:35:04 33° N
Cosmos 1934 Rocket 3.9 19:40:12 10° N 19:46:25 84° W 19:52:41 10° S
Cosmos 2278 Rocket 4.2 19:42:56 10° WSW 19:47:19 23° NW 19:51:13 12° N
Cosmos 2082 Rocket 3.5 20:08:11 10° NW 20:13:21 37° WSW 20:15:50 25° SSW
Cosmos 1833 Rocket 3.7 20:09:35 10° NW 20:14:53 43° WSW 20:14:56 43° WSW
CZ-3B DEB 4.4 20:24:33 10° WNW 20:30:30 34° N 20:30:57 34° N
FALCON 9 R/B 4.5 21:09:03 10° W 21:15:38 29° WSW 21:15:38 29° WSW
